When you browse on this site, cookies collect data to enhance your experience and personalize the content and advertising you see.
Visit our Privacy Policy to learn more. By continuing to use the site, you agree to this use of cookies and data.
  • In Austria
  • List of Countries
  • For 7 days
  • Water Temperature
  • Weather Map
  • News
  • Weather Widgets
  • user-avatar
    Login

    Hourly Weather Balchik

    Today, 3 June, Wednesday

    Time Temperature Precipitation Wind Pressure Humidity
    00:00 +10°C° 0 mm 1 mps 733 mmHg 93%
    01:00 +10°C° 0 mm 1 mps 733 mmHg 94%
    02:00 +8°C° 0 mm 2 mps 733 mmHg 94%
    03:00 +8°C° 0 mm 2 mps 733 mmHg 95%
    04:00 +7°C° 0 mm 2 mps 733 mmHg 95%
    05:00 +7°C° 0 mm 2 mps 733 mmHg 95%
    06:00 +9°C° 0 mm 2 mps 733 mmHg 87%
    07:00 +11°C° 0 mm 3 mps 733 mmHg 79%
    08:00 +13°C° 0 mm 3 mps 734 mmHg 71%
    09:00 +15°C° 0 mm 2 mps 734 mmHg 64%
    10:00 +16°C° 0 mm 2 mps 734 mmHg 56%
    11:00 +18°C° 0 mm 2 mps 734 mmHg 49%
    12:00 +18°C° 0 mm 2 mps 734 mmHg 48%
    13:00 +19°C° 0 mm 2 mps 734 mmHg 48%
    14:00 +19°C° 0 mm 3 mps 734 mmHg 47%
    15:00 +19°C° 0 mm 3 mps 734 mmHg 52%
    16:00 +19°C° 0 mm 3 mps 734 mmHg 56%
    17:00 +18°C° 0 mm 4 mps 733 mmHg 61%
    18:00 +17°C° 0 mm 4 mps 733 mmHg 68%
    19:00 +14°C° 0 mm 4 mps 733 mmHg 76%
    20:00 +12°C° 0 mm 3 mps 733 mmHg 84%
    21:00 +12°C° 0 mm 3 mps 733 mmHg 85%
    22:00 +11°C° 0 mm 3 mps 733 mmHg 87%
    23:00 +11°C° 0 mm 3 mps 734 mmHg 88%

    Tomorrow, 4 June, Thursday

    Time Temperature Precipitation Wind Pressure Humidity
    00:00 +11°C° 0 mm 3 mps 733 mmHg 89%
    01:00 +11°C° 0 mm 3 mps 733 mmHg 90%
    02:00 +10°C° 0 mm 3 mps 733 mmHg 91%
    03:00 +10°C° 0 mm 3 mps 733 mmHg 91%
    04:00 +10°C° 0 mm 3 mps 733 mmHg 91%
    05:00 +10°C° 0 mm 3 mps 733 mmHg 91%
    06:00 +13°C° 0 mm 3 mps 733 mmHg 84%
    07:00 +16°C° 0 mm 3 mps 733 mmHg 76%
    08:00 +18°C° 0 mm 3 mps 733 mmHg 68%
    09:00 +19°C° 0 mm 3 mps 733 mmHg 63%
    10:00 +20°C° 0 mm 4 mps 734 mmHg 58%
    11:00 +22°C° 0 mm 4 mps 734 mmHg 53%
    12:00 +22°C° 0.1 mm 5 mps 734 mmHg 52%
    13:00 +23°C° 0.1 mm 5 mps 734 mmHg 52%
    14:00 +23°C° 0.1 mm 5 mps 734 mmHg 51%
    15:00 +25°C° 0 mm 5 mps 734 mmHg 52%
    16:00 +25°C° 0 mm 4 mps 734 mmHg 53%
    17:00 +25°C° 0 mm 4 mps 734 mmHg 54%
    18:00 +22°C° 0.1 mm 3 mps 734 mmHg 62%
    19:00 +20°C° 0.1 mm 3 mps 734 mmHg 69%
    20:00 +18°C° 0.1 mm 3 mps 734 mmHg 76%
    21:00 +17°C° 0 mm 3 mps 734 mmHg 77%
    22:00 +17°C° 0 mm 3 mps 734 mmHg 78%
    23:00 +15°C° 0 mm 4 mps 735 mmHg 79%

    Day after tomorrow, 5 June, Friday

    Time Temperature Precipitation Wind Pressure Humidity
    00:00 +16°C° 0 mm 3 mps 735 mmHg 80%
    01:00 +16°C° 0 mm 3 mps 734 mmHg 82%
    02:00 +14°C° 0 mm 3 mps 734 mmHg 83%
    03:00 +14°C° 0 mm 3 mps 734 mmHg 83%
    04:00 +14°C° 0 mm 3 mps 734 mmHg 83%
    05:00 +14°C° 0 mm 3 mps 734 mmHg 84%
    06:00 +15°C° 0 mm 4 mps 735 mmHg 79%
    07:00 +17°C° 0 mm 5 mps 735 mmHg 74%
    08:00 +20°C° 0 mm 5 mps 735 mmHg 70%
    09:00 +21°C° 0 mm 6 mps 735 mmHg 67%
    10:00 +22°C° 0 mm 7 mps 735 mmHg 64%
    11:00 +24°C° 0 mm 8 mps 735 mmHg 61%
    12:00 +24°C° 0 mm 8 mps 735 mmHg 59%
    13:00 +26°C° 0 mm 8 mps 735 mmHg 56%
    14:00 +27°C° 0 mm 8 mps 735 mmHg 54%
    15:00 +26°C° 0 mm 8 mps 735 mmHg 55%
    16:00 +26°C° 0 mm 7 mps 734 mmHg 57%
    17:00 +24°C° 0 mm 7 mps 734 mmHg 58%
    18:00 +22°C° 0 mm 6 mps 734 mmHg 61%
    19:00 +21°C° 0 mm 6 mps 734 mmHg 63%
    20:00 +19°C° 0 mm 6 mps 734 mmHg 65%
    21:00 +19°C° 0 mm 6 mps 734 mmHg 65%
    22:00 +17°C° 0 mm 6 mps 734 mmHg 64%
    23:00 +17°C° 0 mm 6 mps 734 mmHg 63%

    6 June, Saturday

    Time Temperature Precipitation Wind Pressure Humidity
    00:00 +16°C° 0 mm 6 mps 734 mmHg 63%
    01:00 +16°C° 0 mm 6 mps 734 mmHg 63%
    02:00 +15°C° 0 mm 6 mps 734 mmHg 63%
    03:00 +15°C° 0 mm 6 mps 734 mmHg 67%
    04:00 +15°C° 0 mm 5 mps 734 mmHg 70%
    05:00 +14°C° 0 mm 5 mps 734 mmHg 73%
    06:00 +17°C° 0 mm 4 mps 735 mmHg 71%
    07:00 +18°C° 0 mm 4 mps 735 mmHg 69%
    08:00 +20°C° 0 mm 4 mps 736 mmHg 68%
    09:00 +21°C° 0 mm 3 mps 736 mmHg 63%
    10:00 +24°C° 0 mm 3 mps 736 mmHg 59%
    11:00 +25°C° 0 mm 3 mps 737 mmHg 55%
    12:00 +26°C° 0 mm 4 mps 737 mmHg 54%
    13:00 +26°C° 0 mm 4 mps 737 mmHg 53%
    14:00 +27°C° 0 mm 5 mps 737 mmHg 53%
    15:00 +26°C° 0.1 mm 5 mps 737 mmHg 55%
    16:00 +25°C° 0.1 mm 4 mps 736 mmHg 58%
    17:00 +23°C° 0.1 mm 4 mps 736 mmHg 61%
    18:00 +22°C° 0 mm 3 mps 736 mmHg 65%
    19:00 +20°C° 0 mm 3 mps 736 mmHg 70%
    20:00 +19°C° 0 mm 3 mps 736 mmHg 74%
    21:00 +18°C° 0 mm 3 mps 736 mmHg 76%
    22:00 +17°C° 0 mm 3 mps 737 mmHg 78%
    23:00 +17°C° 0 mm 3 mps 737 mmHg 79%

    7 June, Sunday

    Time Temperature Precipitation Wind Pressure Humidity
    00:00 +16°C° 0 mm 3 mps 737 mmHg 79%
    01:00 +16°C° 0 mm 3 mps 737 mmHg 78%
    02:00 +16°C° 0 mm 3 mps 736 mmHg 78%
    03:00 +16°C° 0 mm 2 mps 736 mmHg 75%
    04:00 +16°C° 0 mm 2 mps 736 mmHg 72%
    05:00 +16°C° 0 mm 2 mps 736 mmHg 70%
    06:00 +18°C° 0 mm 2 mps 737 mmHg 64%
    07:00 +20°C° 0 mm 2 mps 737 mmHg 59%
    08:00 +24°C° 0 mm 2 mps 737 mmHg 54%
    09:00 +25°C° 0 mm 2 mps 737 mmHg 51%
    10:00 +26°C° 0 mm 2 mps 737 mmHg 47%
    11:00 +28°C° 0 mm 3 mps 737 mmHg 44%
    12:00 +28°C° 0 mm 3 mps 737 mmHg 44%
    13:00 +28°C° 0 mm 3 mps 737 mmHg 44%
    14:00 +28°C° 0 mm 3 mps 737 mmHg 44%
    15:00 +28°C° 0 mm 3 mps 736 mmHg 46%
    16:00 +27°C° 0 mm 3 mps 736 mmHg 49%
    17:00 +26°C° 0 mm 3 mps 736 mmHg 51%
    18:00 +24°C° 0 mm 2 mps 736 mmHg 57%
    19:00 +21°C° 0 mm 2 mps 736 mmHg 63%
    20:00 +19°C° 0 mm 2 mps 736 mmHg 69%
    21:00 +18°C° 0 mm 2 mps 736 mmHg 67%
    22:00 +19°C° 0 mm 1 mps 736 mmHg 64%
    23:00 +18°C° 0 mm 1 mps 736 mmHg 61%

    8 June, Monday

    Time Temperature Precipitation Wind Pressure Humidity
    00:00 +18°C° 0 mm 1 mps 736 mmHg 60%
    01:00 +18°C° 0 mm 1 mps 736 mmHg 59%
    02:00 +18°C° 0 mm 1 mps 735 mmHg 58%
    03:00 +18°C° 0 mm 1 mps 735 mmHg 59%
    04:00 +18°C° 0 mm 1 mps 735 mmHg 59%
    05:00 +18°C° 0 mm 1 mps 735 mmHg 60%
    06:00 +20°C° 0 mm 1 mps 735 mmHg 58%
    07:00 +21°C° 0 mm 1 mps 736 mmHg 57%
    08:00 +23°C° 0 mm 1 mps 736 mmHg 55%
    09:00 +25°C° 0 mm 1 mps 736 mmHg 52%
    10:00 +26°C° 0 mm 1 mps 736 mmHg 49%
    11:00 +28°C° 0 mm 1 mps 736 mmHg 46%
    12:00 +28°C° 0 mm 2 mps 736 mmHg 46%
    13:00 +28°C° 0 mm 2 mps 736 mmHg 46%
    14:00 +29°C° 0 mm 2 mps 735 mmHg 47%
    15:00 +28°C° 0 mm 3 mps 735 mmHg 52%
    16:00 +27°C° 0 mm 3 mps 735 mmHg 57%
    17:00 +26°C° 0 mm 3 mps 734 mmHg 62%
    18:00 +24°C° 0 mm 3 mps 734 mmHg 69%
    19:00 +21°C° 0 mm 3 mps 734 mmHg 76%
    20:00 +18°C° 0 mm 2 mps 734 mmHg 82%
    21:00 +18°C° 0 mm 2 mps 734 mmHg 82%
    22:00 +17°C° 0 mm 2 mps 734 mmHg 81%
    23:00 +18°C° 0 mm 1 mps 734 mmHg 80%
    Show more